Terminal Aerodrome Forecast
Issued by NWS Blacksburg, VA

Current Version | Previous Version | Graphics & Text | Print | Product List | Glossary On
Versions: 1 2 3 4 5 6 7 8 9 10 11 12 13 14 15 16 17 18 19 20 21 22 23 24 25 26 27 28 29 30 31 32 33 34 35 36 37
000
FTUS41 KRNK 301722
TAFBLF
TAF
KBLF 301722Z 3018/3118 27008KT P6SM SCT015 BKN035
      TEMPO 3018/3020 5SM -SHRA SCT005 BKN015
     FM302000 31007KT P6SM BKN040
     FM302100 31009G19KT P6SM SCT050
     FM302300 30004KT P6SM SKC=

USA.gov is the U.S. government's official web portal to all federal, state and local government web resources and services.